Weather History for KCDC - June, 2014

Change the Weather History Date:

Tuesday, June 3, 2014

  Actual Average Record
Temperature  
Mean Temperature 65 °F 61 °F  
Max Temperature 84 °F 79 °F 92 °F (2012)
Min Temperature 46 °F 44 °F 31 °F (2011)
Degree Days  
Heating Degree Days 0 5  
Month to date heating degree days 3 15  
Since 1 June heating degree days 3 15  
Since 1 July heating degree days 6092 6194  
Cooling Degree Days 0 1  
Month to date cooling degree days 0 3  
Year to date cooling degree days 25 11  
Since 1 June cooling degree days 0 3  
Growing Degree Days 14 (Base 50)    
Moisture  
Dew Point 9 °F    
Average Humidity 17    
Maximum Humidity 28    
Minimum Humidity 5    
Precipitation  
Precipitation 0.00 in 0.02 in 0.62 in (2005)
Month to date precipitation 0.00 0.07  
Year to date precipitation 3.43 5.11  
Sea Level Pressure  
Sea Level Pressure 29.76 in    
Wind  
Wind Speed 8 mph (SSW)    
Max Wind Speed 20 mph    
Max Gust Speed 25 mph    
Visibility 10 miles    
Events      
T = Trace of Precipitation, MM = Missing Value Source: NWS Daily Summary

Daily Weather History Graph

Daily Weather History Graph

Search for Another Location

Airport or City:

Trip Planner

Search our weather history database for the weather conditions in past years. The results will help you decide how hot, cold, wet, or windy it might be!

Date:

Astronomy

Jun. 03, 2014 Rise Set
Actual Time 6:11 AM MDT 8:49 PM MDT
Civil Twilight 5:40 AM MDT 9:20 PM MDT
Nautical Twilight 5:02 AM MDT 9:59 PM MDT
Astronomical Twilight 4:19 AM MDT 10:42 PM MDT
Moon 11:34 AM MDT (6/3) 12:23 AM MDT (6/3)
Length of Visible Light 15h 39m
Length of Day
14h 38m
Waxing Crescent, 30% of the Moon is Illuminated
Jun 3
Waxing Crescent
Jun 5
First Quarter
Jun 12
Full
Jun 19
Last Quarter
Jun 27
New

Hourly Weather History & Observations

Time (MDT) Temp. Dew Point Humidity Pressure Visibility Wind Dir Wind Speed Gust Speed Precip Events Conditions
12:53 AM 69.1 °F 18.0 °F 14% 29.64 in 10.0 mi South 12.7 mph - N/A   Clear
1:53 AM 66.0 °F 15.1 °F 14% 29.67 in 10.0 mi SW 10.4 mph - N/A   Clear
2:53 AM 60.1 °F 10.9 °F 14% 29.69 in 10.0 mi SSW 9.2 mph - N/A   Clear
3:53 AM 59.0 °F 9.0 °F 14% 29.70 in 10.0 mi SSW 5.8 mph - N/A   Clear
4:53 AM 55.9 °F 10.9 °F 17% 29.72 in 10.0 mi SSW 3.5 mph - N/A   Clear
5:53 AM 46.9 °F 15.1 °F 28% 29.78 in 10.0 mi WSW 6.9 mph - N/A   Clear
6:53 AM 57.0 °F 12.9 °F 18% 29.77 in 10.0 mi SE 8.1 mph - N/A   Clear
7:53 AM 63.0 °F 12.9 °F 14% 29.77 in 10.0 mi SW 13.8 mph - N/A   Clear
8:53 AM 68.0 °F 7.0 °F 9% 29.79 in 10.0 mi SSW 16.1 mph 20.7 mph N/A   Clear
9:53 AM 71.1 °F 8.1 °F 9% 29.82 in 10.0 mi SW 11.5 mph 19.6 mph N/A   Clear
10:53 AM 73.0 °F 7.0 °F 8% 29.80 in 10.0 mi SW 10.4 mph - N/A   Clear
11:53 AM 73.9 °F 7.0 °F 8% 29.82 in 10.0 mi Variable 4.6 mph - N/A   Clear
12:53 PM 79.0 °F 9.0 °F 7% 29.78 in 10.0 mi Variable 3.5 mph - N/A   Clear
1:53 PM 79.0 °F 7.0 °F 6% 29.78 in 10.0 mi Variable 3.5 mph - N/A   Clear
2:53 PM 81.0 °F 7.0 °F 6% 29.77 in 10.0 mi NNE 4.6 mph - N/A   Clear
3:53 PM 82.9 °F 9.0 °F 6% 29.75 in 10.0 mi WSW 12.7 mph 18.4 mph N/A   Clear
4:53 PM 82.0 °F 7.0 °F 6% 29.76 in 10.0 mi SW 12.7 mph 20.7 mph N/A   Clear
5:53 PM 82.0 °F 6.1 °F 6% 29.78 in 10.0 mi SW 12.7 mph 20.7 mph N/A   Clear
6:53 PM 80.1 °F 3.9 °F 5% 29.75 in 10.0 mi SSW 13.8 mph - N/A   Clear
7:53 PM 77.0 °F 1.9 °F 5% 29.75 in 10.0 mi SSW 12.7 mph 20.7 mph N/A   Clear
8:53 PM 69.1 °F 5.0 °F 8% 29.76 in 10.0 mi SSW 10.4 mph - N/A   Clear
9:53 PM 64.9 °F 3.9 °F 9% 29.78 in 10.0 mi SSE 5.8 mph - N/A   Clear